Location: Goll?ig?dem
(16.6773°N, 80.7332°E)
Time: 06:19:12
(UTC+00:00)

H-2A R/B - Pass Details

Date: 21 April 2021
Orbit: 186 x 15295 km, 31.9° (Epoch: 05 May)

Event Time Altitude Azimuth Distance (km) Brightness Sun altitude
Rises 21:28:13 0° 297° (WNW) 16,030 8.5 -38.5°
Reaches altitude 10° 21:50:22 10° 297° (WNW) 11,314 7.6 -33.9°
Maximum altitude 22:20:43 65° 221° (SW) 1,836 3.5 -27.4°
Drops below altitude 10° 22:26:11 10° 138° (SE) 2,424 4.8 -26.2°
Sets 22:27:35 0° 134° (SE) 2,956 5.3 -25.8°
